Regional Weather Roundup
Issued by NWS Little Rock, AR

Home | Current Version | Previous Version | Text Only | Print | Product List | Glossary On
Versions: 1 2 3 4 5 6 7 8 9 10 11 12 13 14 15 16 17 18 19 20 21 22 23 24 25 26 27 28 29 30 31 32 33 34 35 36 37 38 39 40 41 42 43 44 45 46 47 48 49 50
000
ASUS44 KLZK 220505
RWRLZK

WEATHER ROUNDUP FOR ARKANSAS
NATIONAL WEATHER SERVICE LITTLE ROCK AR
1200 AM CDT SAT JUL 22 2017

NOTE: "FAIR" INDICATES FEW OR NO CLOUDS BELOW 12,000 FEET WITH NO
SIGNIFICANT WEATHER AND/OR OBSTRUCTIONS TO VISIBILITY.

ARZ001-003-010-029-220600-
NORTHWEST ARKANSAS

CITY           SKY/WX    TMP DP  RH WIND       PRES   REMARKS
FAYETTEVILLE   CLEAR     77  75  93 S3        30.00R
FORT SMITH     CLEAR     84  73  69 S6        29.95R HX  90
HARRISON       CLEAR     78  73  84 S3        30.01S
BENTONVILLE    CLEAR     81  70  69 S3        30.00S
ROGERS         CLEAR     79  73  82 SE9       30.00S
SILOAM SPGS    CLEAR     79  70  73 S7        29.98S
HIGHFILL       CLEAR     79  73  82 S7        29.99S
$$

ARZ004-005-016-220600-
NORTH CENTRAL ARKANSAS

CITY           SKY/WX    TMP DP  RH WIND       PRES   REMARKS
BATESVILLE     CLEAR     82  73  74 S5        29.97S HX  88
FLIPPIN        CLEAR     81  70  69 CALM      29.96R
MTN HOME       CLEAR     80  73  79 S3        29.98S
$$

ARZ040-041-220600-
WEST CENTRAL ARKANSAS

CITY           SKY/WX    TMP DP  RH WIND       PRES   REMARKS
MENA           CLEAR     77  75  94 CALM      30.01R
MOUNT IDA      CLEAR     78  73  84 CALM      29.97R
$$

ARZ009-017-025-026-028-220600-
NORTHEAST ARKANSAS

CITY           SKY/WX    TMP DP  RH WIND       PRES   REMARKS
JONESBORO      CLEAR     85  77  77 SW7       29.96R HX  95
WALNUT RIDGE   CLEAR     81  75  83 S5        29.96R HX  86
BLYTHEVILLE    CLEAR     83  78  85 SW3       29.97R HX  93
$$

ARZ022-023-033-042-044-220600-
CENTRAL ARKANSAS

CITY           SKY/WX    TMP DP  RH WIND       PRES   REMARKS
LITTLE ROCK    CLEAR     82  77  84 S7        29.96S HX  90
N LITTLE ROCK    N/A     83  76  79 CALM      29.95R HX  91
JACKSONVILLE   PTCLDY    85  76  76 S5        29.96S HX  94
CONWAY           N/A     84  77  79 CALM      29.95R HX  94
SEARCY         PTCLDY    79  79 100 CALM      29.98R FOG
HOT SPRINGS    CLEAR     83  77  82 CALM      29.98R HX  92
RUSSELLVILLE   CLEAR     79  76  90 CALM      29.96R
CLINTON        FAIR      77  77 100 CALM      29.98R
$$

ARZ036-220600-
EAST ARKANSAS

CITY           SKY/WX    TMP DP  RH WIND       PRES   REMARKS
WEST MEMPHIS   CLEAR     82  77  84 SW3       29.95S HX  90
$$

ARZ050-053-066-070-073-220600-
SOUTHWEST ARKANSAS

CITY           SKY/WX    TMP DP  RH WIND       PRES   REMARKS
ARKADELPHIA    FAIR      78  76  93 CALM      29.96S
CAMDEN         CLEAR     79  73  83 CALM      29.96F
TEXARKANA      CLEAR     80  74  81 S7        29.97S HX  85
EL DORADO      CLOUDY    78  75  90 CALM      29.97F
DE QUEEN       CLEAR     79  79 100 CALM      29.94S
$$

ARZ056-057-069-220600-
SOUTHEAST ARKANSAS

CITY           SKY/WX    TMP DP  RH WIND       PRES   REMARKS
PINE BLUFF     CLEAR     82  76  81 SW3       29.96F HX  89
STUTTGART      CLEAR     82  66  57 S6        29.97S HX  85
MONTICELLO     PTCLDY    83  77  82 S5        29.97S HX  92

$$





USA.gov is the U.S. government's official web portal to all federal, state and local government web resources and services.